DELTA 1 DEB, 10872

Orbit data source: Space-Track

DELTA 1 DEB, 10872 is space debris in SSO originally from a launch on Thu, 29 Jul 1976 UTC launched from the Air Force Western Test Range (AFWTR). Debris objects in space refer to the collection of defunct objects orbiting the Earth. Examples of debris include non-operational satellites, rocket bodies, and fragments generated from explosions, collisions, or faulty payload assembly.

Loading next visibility...
Identifier
10872, 1976-077DA
Orbit
SSO
Country
Flag of USUS
Related business
Manufacturer
Unknown
Mission
Spacecraft
Bus & Motor
Unknown
Mass
Unknown
Launch date (UTC)
1976-07-29 (50 years ago)
Launch vehicle
Unknown
Launch site
Air Force Western Test Range (AFWTR)
Object type
Payload
Rocket body
Debris
Shape & HBR
Unknown shape, 0.1 m
Radar Cross Section
Small (<0.1 m²)

Expand to show TLE details & history
Last TLE update: 1 day ago

TLE from 1 day ago
0 DELTA 1 DEB
1 10872U 76077DA  26044.50904208  .00000075  00000-0  10047-2 0  9995
2 10872 101.4770  60.3308 0100672 241.7269 274.7902 12.27138700216705
Epoch: 2026-02-13T12:13Z
TLE epoch observation values (Epoch: 2026-02-13T12:13:01.235Z)
Latitude
24.13354°
Longitude
-81.27612°
Altitude
1,558.326 km
Speed
7.093 km/s
True Right ascension
16h 22m 05s
True Declination
24° 01' 06"
Sunlit
Object was in daylight at epoch
Visualization orbit readout
Latitude
Unknown
Longitude
Unknown
Altitude
Unknown
Speed
Unknown
Apparent Right ascension
Unknown
Apparent Declination
Unknown
Sunlit
N/A
Visualization observer readout
Local Sidereal Time
20:01:30
Azimuth
Unknown
Elevation
Unknown
Doppler factor
Unknown
Orbital elements
Apogee altitude
1,639.067 km
Perigee altitude
1,479.254 km
Semi-major axis
7,937.297 km
Eccentricity
0.01007
Inclination
101.477°
RAAN
60.3308°
Arg. of periapsis
241.7269°
True anomaly
273.63948°
Mean anomaly
274.7902°
Eccentric anomaly
274.21495°
Mean motion
3.06926 °/min
Orbital period
117.29 mins
BSTAR
0.0010047
Loading maneuver chart data...
Computing Atmospheric mass density...
Loading historical data...
Loading historical data...
Loading historical data...
Loading historical data...
Loading historical data...
Loading historical data...
Loading historical data...

Documentation

Showing up to 5 results
|